This demonstration page uses our WeatherBlox Daily Observations layout. Learn more.

Left ArrowRight Arrow

Hourly Observations for April 29, 2021

Temp ( °F °C ) Dew Point ( °F °C ) Humidity (%) Winds ( mph kmh ) Pressure ( in mb ) Visibility ( mi km ) Precip ( " mm )
12:15 am 00:15 Clear 49 9.5 47 8.1 91 91 WNW 6 9 30.05 1018 10 16 0.00 0.00
12:35 am 00:35 Clear 48 9.1 46 7.8 92 92 WNW 5 7 30.05 1018 10 16 0.00 0.00
12:55 am 00:55 Clear 48 9 46 7.6 91 91 WNW 5 7 30.06 1018 10 16 0.00 0.00
1:15 am 01:15 Clear 47 8.3 45 7.2 93 93 NW 6 9 30.07 1018 10 16 0.00 0.00
1:35 am 01:35 Clear 47 8.2 45 7.2 93 93 WNW 7 11 30.07 1018 10 16 0.00 0.00
1:55 am 01:55 Clear 47 8.1 45 7 93 93 WNW 7 11 30.07 1018 10 16 0.00 0.00
2:15 am 02:15 Clear 48 8.7 45 7.3 91 91 WNW 7 11 30.06 1018 10 16 0.00 0.00
2:35 am 02:35 Clear 47 8.3 45 7 92 92 WNW 7 11 30.07 1018 10 16 0.00 0.00
2:55 am 02:55 Clear 47 8.3 44 6.8 90 90 WNW 7 11 30.07 1018 10 16 0.00 0.00
3:15 am 03:15 Clear 46 8 44 6.6 91 91 WNW 7 11 30.07 1018 10 16 0.00 0.00
3:35 am 03:35 Clear 47 8.1 44 6.6 90 90 WNW 8 13 30.07 1018 10 16 0.00 0.00
3:55 am 03:55 Clear 46 7.5 43 6.2 92 92 NW 7 11 30.09 1019 10 16 0.00 0.00
4:15 am 04:15 Clear 46 7.8 44 6.5 92 92 WNW 7 11 30.08 1019 10 16 0.00 0.00
4:35 am 04:35 Clear 46 7.6 43 6.3 92 92 WNW 6 9 30.08 1019 10 16 0.00 0.00
4:55 am 04:55 Clear 46 7.6 43 6.2 91 91 WNW 5 7 30.09 1019 10 16 0.00 0.00
5:15 am 05:15 Clear 45 7.2 42 5.8 91 91 WNW 6 9 30.10 1019 10 16 0.00 0.00
5:35 am 05:35 Clear 45 7.3 42 5.8 90 90 WNW 8 13 30.10 1019 10 16 0.00 0.00
5:55 am 05:55 Clear 46 7.7 43 6.1 90 90 WNW 7 11 30.10 1019 10 16 0.00 0.00
6:15 am 06:15 Clear 46 7.5 43 6 90 90 WNW 8 13 30.11 1019 10 16 0.00 0.00
6:35 am 06:35 Clear 45 7 42 5.5 90 90 NW 6 9 30.12 1020 10 16 0.00 0.00
6:55 am 06:55 Sunny 46 7.6 43 6 90 90 WNW 8 13 30.12 1020 10 16 0.00 0.00
7:15 am 07:15 Sunny 47 8.3 43 6.3 87 87 NW 10 17 30.13 1020 10 16 0.00 0.00
7:35 am 07:35 Sunny 49 9.2 44 6.6 84 84 NW 10 17 30.13 1020 10 16 0.00 0.00
7:55 am 07:55 Sunny 51 10.3 44 6.9 80 80 NW 12 19 30.13 1020 10 16 0.00 0.00
8:15 am 08:15 Sunny 52 11.3 43 6.1 71 71 NW 13 20 30.12 1020 10 16 0.00 0.00
8:35 am 08:35 Sunny 54 12.1 43 6.1 67 67 NW 13 20 30.12 1020 10 16 0.00 0.00
8:55 am 08:55 Sunny 55 13 44 6.4 64 64 NW 10 17 30.13 1020 10 16 0.00 0.00
9:15 am 09:15 Sunny 57 14.1 43 6.2 59 59 NW 10 17 30.12 1020 10 16 0.00 0.00
9:35 am 09:35 Sunny 59 15 43 6.2 56 56 NW 9 15 30.12 1020 10 16 0.00 0.00
9:55 am 09:55 Sunny 61 16 43 6.1 52 52 NNW 10 17 30.11 1020 10 16 0.00 0.00
10:15 am 10:15 Sunny 62 16.5 42 5.7 49 49 NNW 13 20 30.11 1020 10 16 0.00 0.00
10:35 am 10:35 Sunny 64 17.7 42 5.8 46 46 NNW 14 22 30.11 1020 10 16 0.00 0.00
10:55 am 10:55 Sunny 65 18.5 43 6.3 45 45 NNW 15 24 30.11 1020 10 16 0.00 0.00
11:15 am 11:15 Sunny 65 18.6 43 6.3 45 45 NNW 15 24 30.12 1020 10 16 0.00 0.00
11:35 am 11:35 Sunny 68 19.8 36 2.4 32 32 N 20 31 30.12 1020 10 16 0.00 0.00
11:55 am 11:55 Sunny 68 20.1 36 2.1 30 30 NNW 17 28 30.12 1020 10 16 0.00 0.00
12:15 pm 12:15 Sunny 69 20.3 33 0.6 27 27 N 20 31 30.12 1020 10 16 0.00 0.00
12:35 pm 12:35 Sunny 68 20.2 35 1.4 29 29 N 17 28 30.12 1020 10 16 0.00 0.00
12:55 pm 12:55 Sunny 68 20.1 35 1.6 29 29 N 12 19 30.13 1020 10 16 0.00 0.00
1:15 pm 13:15 Sunny 70 20.9 36 2.2 29 29 N 17 28 30.11 1020 10 16 0.00 0.00
1:35 pm 13:35 Sunny 70 21 35 1.6 28 28 N 20 31 30.11 1020 10 16 0.00 0.00
1:55 pm 13:55 Sunny 71 21.7 34 1.1 26 26 N 20 31 30.10 1019 10 16 0.00 0.00
2:15 pm 14:15 Sunny 71 21.5 34 1 26 26 NNW 20 31 30.10 1019 10 16 0.00 0.00
2:35 pm 14:35 Sunny 71 21.6 34 1 26 26 N 20 31 30.10 1019 10 16 0.00 0.00
2:55 pm 14:55 Sunny 71 21.8 33 0.4 24 24 N 17 28 30.10 1019 10 16 0.00 0.00
3:15 pm 15:15 Sunny 73 22.5 31 -0.3 22 22 N 14 22 30.10 1019 10 16 0.00 0.00
3:35 pm 15:35 Sunny 71 21.9 32 -0.1 23 23 N 24 39 30.09 1019 10 16 0.00 0.00
3:55 pm 15:55 Sunny 72 22.2 31 -0.3 22 22 N 16 26 30.09 1019 10 16 0.00 0.00
4:15 pm 16:15 Sunny 72 22.1 31 -0.7 22 22 N 15 24 30.09 1019 10 16 0.00 0.00
4:35 pm 16:35 Sunny 72 22.3 30 -1.1 21 21 N 13 20 30.09 1019 10 16 0.00 0.00
4:55 pm 16:55 Sunny 72 22.2 30 -0.9 21 21 N 13 20 30.08 1019 10 16 0.00 0.00
8:55 pm 20:55 Partly Cloudy 60 15.3 33 0.7 37 37 ESE 6 9 30.17 1022 10 16 0.00 0.00
9:15 pm 21:15 Clear 57 13.9 33 0.5 40 40 SE 8 13 30.19 1022 10 16 0.00 0.00
9:35 pm 21:35 Clear 54 12.2 35 1.6 49 49 SE 6 9 30.20 1023 10 16 0.00 0.00
9:55 pm 21:55 Clear 53 11.9 34 1.1 48 48 SE 6 9 30.22 1023 10 16 0.00 0.00
10:15 pm 22:15 Clear 54 12.1 33 0.4 45 45 SSE 5 7 30.22 1024 10 16 0.00 0.00
10:35 pm 22:35 Clear 54 12.3 32 0 43 43 SSE 5 7 30.22 1023 10 16 0.00 0.00
10:55 pm 22:55 Clear 54 12.2 32 -0.1 43 43 SSE 6 9 30.23 1024 10 16 0.00 0.00
11:15 pm 23:15 Clear 52 11.1 33 0.5 48 48 SSE 7 11 30.23 1024 10 16 0.00 0.00
11:35 pm 23:35 Clear 54 12 32 0 44 44 S 7 11 30.23 1024 10 16 0.00 0.00
11:55 pm 23:55 Clear 53 11.5 32 0.2 46 46 S 8 13 30.23 1024 10 16 0.00 0.00

Powered by AerisWeather